Weather History for KCKP - October, 2013

Change the Weather History Date:

Tuesday, October 22, 2013

  Actual Average Record
Temperature  
Mean Temperature 39 °F -  
Max Temperature 42 °F 60 °F 79 °F (1963)
Min Temperature 36 °F 34 °F 15 °F (1976)
Degree Days  
Heating Degree Days 26    
Moisture  
Dew Point 33 °F    
Average Humidity 78    
Maximum Humidity 92    
Minimum Humidity 61    
Precipitation  
Precipitation 0.03 in - - ()
Sea Level Pressure  
Sea Level Pressure 30.00 in    
Wind  
Wind Speed 5 mph (North)    
Max Wind Speed 13 mph    
Max Gust Speed 18 mph    
Visibility 9 miles    
Events Rain , Snow    
Averages and records for this station are not official NWS values.
T = Trace of Precipitation, MM = Missing Value Source: NWS Daily Summary

Daily Weather History Graph

Daily Weather History Graph

Search for Another Location

Airport or City:

Trip Planner

Search our weather history database for the weather conditions in past years. The results will help you decide how hot, cold, wet, or windy it might be!

Date:

Astronomy

Oct. 22, 2013 Rise Set
Actual Time 7:44 AM CDT 6:28 PM CDT
Civil Twilight 7:15 AM CDT 6:57 PM CDT
Nautical Twilight 6:42 AM CDT 7:30 PM CDT
Astronomical Twilight 6:09 AM CDT 8:02 PM CDT
Moon 9:06 PM CDT (10/22) 11:16 AM CDT (10/22)
Length of Visible Light 11h 41m
Length of Day
10h 44m
Waning Gibbous, 86% of the Moon is Illuminated
Oct 22
Waning Gibbous
Oct 26
Last Quarter
Nov 3
New
Nov 9
First Quarter
Nov 17
Full

Hourly Weather History & Observations

Time (CDT) Temp. Windchill Dew Point Humidity Pressure Visibility Wind Dir Wind Speed Gust Speed Precip Events Conditions
12:15 AM 41.5 °F - 36.0 °F 81% 29.92 in 10.0 mi Calm Calm - N/A   Overcast
12:35 AM 41.4 °F - 36.5 °F 83% 29.92 in 10.0 mi Calm Calm - N/A   Overcast
12:55 AM 41.5 °F - 35.8 °F 80% 29.92 in 10.0 mi Calm Calm - N/A Rain Rain
1:15 AM 41.9 °F - 36.3 °F 81% 29.91 in 10.0 mi Calm Calm - N/A   Overcast
1:35 AM 41.7 °F - 37.9 °F 86% 29.91 in 10.0 mi Calm Calm - N/A   Overcast
1:55 AM 41.5 °F - 38.5 °F 89% 29.91 in 10.0 mi Calm Calm - N/A   Light Drizzle
2:15 AM 42.4 °F - 38.7 °F 86% 29.92 in 10.0 mi Calm Calm - N/A Rain Light Rain
2:35 AM 42.4 °F 38.8 °F 39.2 °F 88% 29.92 in 7.0 mi NNE 5.8 mph - 0.01 in Rain Rain
2:55 AM 42.1 °F 38.4 °F 39.2 °F 90% 29.92 in 10.0 mi NNE 5.8 mph - 0.02 in Rain Light Rain
3:15 AM 41.4 °F 38.4 °F 38.7 °F 90% 29.92 in 10.0 mi NNE 4.6 mph - N/A Rain Light Rain
3:35 AM 41.0 °F 35.8 °F 38.5 °F 91% 29.92 in 10.0 mi NNE 8.1 mph - 0.01 in   Light Drizzle
3:55 AM 39.4 °F 33.2 °F 36.3 °F 89% 29.91 in 10.0 mi NNE 9.2 mph - 0.01 in Rain Rain
4:15 AM 39.2 °F 33.6 °F 35.6 °F 87% 29.91 in 10.0 mi NE 8.1 mph - N/A   Drizzle
4:35 AM 38.5 °F 32.1 °F 35.2 °F 88% 29.91 in 10.0 mi NE 9.2 mph - N/A   Light Drizzle
4:55 AM 37.8 °F 32.5 °F 34.9 °F 89% 29.90 in 7.0 mi NE 6.9 mph - N/A   Drizzle
5:15 AM 37.4 °F 30.8 °F 34.7 °F 90% 29.90 in 7.0 mi NE 9.2 mph - N/A   Overcast
5:35 AM 37.4 °F 32.1 °F 34.7 °F 90% 29.90 in 10.0 mi NE 6.9 mph - N/A   Overcast
5:55 AM 37.0 °F 31.0 °F 34.7 °F 91% 29.90 in 10.0 mi NE 8.1 mph - N/A   Overcast
6:15 AM 36.7 °F 32.9 °F 34.3 °F 91% 29.91 in 10.0 mi NE 4.6 mph - N/A Rain Light Rain
6:35 AM 36.7 °F 30.5 °F 34.3 °F 91% 29.90 in 10.0 mi NE 8.1 mph - N/A   Overcast
6:55 AM 36.7 °F 32.0 °F 34.2 °F 91% 29.90 in 10.0 mi NE 5.8 mph - N/A   Overcast
7:15 AM 36.7 °F 30.5 °F 34.2 °F 91% 29.91 in 10.0 mi NE 8.1 mph - N/A Rain Light Rain
7:35 AM 36.5 °F 31.8 °F 34.0 °F 91% 29.92 in 10.0 mi ENE 5.8 mph - N/A   Overcast
7:55 AM 36.5 °F 31.8 °F 33.8 °F 90% 29.93 in 7.0 mi NE 5.8 mph - N/A Snow Light Snow
8:15 AM 36.5 °F 31.8 °F 34.0 °F 91% 29.94 in 5.0 mi NNE 5.8 mph - N/A Snow Light Snow
8:35 AM 36.5 °F 31.8 °F 34.2 °F 91% 29.95 in 7.0 mi NNE 5.8 mph - N/A Snow Light Snow
8:55 AM 36.3 °F 31.6 °F 34.0 °F 91% 29.96 in 3.0 mi NNE 5.8 mph - N/A Snow Light Snow
9:15 AM 36.1 °F 30.6 °F 34.0 °F 92% 29.97 in 2.5 mi NNE 6.9 mph - N/A Snow Light Snow
9:35 AM 36.5 °F 29.7 °F 34.3 °F 92% 29.97 in 5.0 mi NNE 9.2 mph - N/A Rain Light Rain
9:55 AM 36.5 °F 29.7 °F 33.8 °F 90% 29.99 in 10.0 mi NNE 9.2 mph - N/A   Overcast
10:15 AM 37.0 °F 30.4 °F 33.4 °F 87% 30.00 in 10.0 mi NNE 9.2 mph - N/A   Overcast
10:35 AM 37.0 °F 30.4 °F 32.5 °F 84% 30.01 in 5.0 mi NNE 9.2 mph - N/A Snow Light Snow
10:55 AM 37.4 °F 32.1 °F 33.1 °F 84% 30.01 in 10.0 mi North 6.9 mph - N/A   Overcast
11:15 AM 38.1 °F 30.2 °F 32.5 °F 80% 30.01 in 10.0 mi North 12.7 mph - N/A   Overcast
11:35 AM 38.8 °F 33.2 °F 32.7 °F 79% 30.01 in 10.0 mi NNE 8.1 mph - N/A   Overcast
11:55 AM 38.7 °F 32.9 °F 32.4 °F 78% 30.02 in 10.0 mi North 8.1 mph - N/A   Overcast
12:15 PM 39.2 °F 33.0 °F 32.2 °F 76% 30.02 in 10.0 mi NNE 9.2 mph - N/A   Overcast
12:35 PM 39.9 °F 33.9 °F 32.2 °F 74% 30.02 in 10.0 mi North 9.2 mph - N/A   Overcast
12:55 PM 40.6 °F 34.3 °F 31.5 °F 70% 30.03 in 10.0 mi North 10.4 mph - N/A   Overcast
1:15 PM 40.8 °F 35.0 °F 31.1 °F 68% 30.02 in 10.0 mi North 9.2 mph - N/A   Overcast
1:35 PM 41.7 °F 36.7 °F 31.1 °F 66% 30.02 in 10.0 mi NNW 8.1 mph - N/A   Overcast
1:55 PM 42.3 °F 35.9 °F 30.6 °F 63% 30.02 in 10.0 mi NNW 11.5 mph - N/A   Overcast
2:15 PM 42.1 °F 37.1 °F 30.7 °F 64% 30.02 in 10.0 mi NNW 8.1 mph - N/A   Overcast
2:35 PM 42.3 °F 37.3 °F 31.1 °F 65% 30.02 in 10.0 mi NNW 8.1 mph 16.1 mph N/A   Overcast
2:55 PM 41.7 °F 35.6 °F 29.8 °F 63% 30.03 in 10.0 mi NNW 10.4 mph - N/A   Overcast
3:15 PM 41.9 °F 35.9 °F 30.6 °F 64% 30.03 in 10.0 mi NNW 10.4 mph - N/A   Overcast
3:35 PM 41.9 °F 35.9 °F 30.2 °F 63% 30.04 in 10.0 mi NNW 10.4 mph 16.1 mph N/A   Overcast
3:55 PM 41.5 °F 35.4 °F 29.5 °F 62% 30.04 in 10.0 mi NNW 10.4 mph 17.3 mph N/A   Overcast
4:15 PM 41.5 °F 35.4 °F 30.0 °F 64% 30.05 in 10.0 mi NW 10.4 mph 18.4 mph N/A   Overcast
4:35 PM 41.9 °F 36.3 °F 29.7 °F 62% 30.05 in 10.0 mi NW 9.2 mph - N/A   Overcast
4:55 PM 41.7 °F 36.1 °F 30.0 °F 63% 30.06 in 10.0 mi NW 9.2 mph - N/A   Overcast
5:15 PM 41.5 °F 35.9 °F 29.5 °F 62% 30.07 in 10.0 mi NW 9.2 mph 17.3 mph N/A   Overcast
5:35 PM 41.5 °F 37.1 °F 29.1 °F 61% 30.07 in 10.0 mi NW 6.9 mph - N/A   Overcast
5:55 PM 41.2 °F 37.3 °F 29.7 °F 64% 30.07 in 10.0 mi NW 5.8 mph - N/A   Overcast
6:15 PM 40.8 °F 36.2 °F 29.3 °F 64% 30.07 in 10.0 mi NW 6.9 mph - N/A   Overcast
6:35 PM 40.6 °F 37.5 °F 29.5 °F 64% 30.07 in 10.0 mi NW 4.6 mph - N/A   Overcast
6:55 PM 40.6 °F 37.5 °F 29.7 °F 65% 30.08 in 10.0 mi NW 4.6 mph - N/A   Overcast
7:15 PM 40.1 °F 38.0 °F 29.7 °F 66% 30.08 in 10.0 mi NW 3.5 mph - N/A   Overcast
7:35 PM 39.7 °F 37.6 °F 30.6 °F 70% 30.08 in 10.0 mi NW 3.5 mph - N/A   Overcast
7:55 PM 39.6 °F 36.3 °F 30.9 °F 71% 30.08 in 10.0 mi NW 4.6 mph - N/A   Overcast
8:15 PM 39.7 °F 37.6 °F 30.9 °F 71% 30.08 in 10.0 mi WNW 3.5 mph - N/A   Overcast
8:35 PM 39.6 °F 36.3 °F 31.3 °F 72% 30.08 in 10.0 mi WNW 4.6 mph - N/A   Overcast
8:55 PM 39.7 °F 35.6 °F 30.9 °F 71% 30.09 in 10.0 mi WNW 5.8 mph - N/A   Overcast
9:35 PM 39.2 °F 37.0 °F 31.5 °F 74% 30.09 in 10.0 mi WNW 3.5 mph - N/A   Overcast
10:15 PM 39.0 °F 36.8 °F 32.0 °F 76% 30.09 in 10.0 mi North 3.5 mph - N/A   Overcast
10:35 PM 39.0 °F - 31.8 °F 75% 30.10 in 10.0 mi Calm Calm - N/A   Overcast
10:55 PM 38.7 °F - 32.0 °F 77% 30.10 in 10.0 mi Calm Calm - N/A   Overcast
11:15 PM 38.8 °F - 32.0 °F 76% 30.09 in 10.0 mi Calm Calm - N/A   Overcast
11:35 PM 38.7 °F - 32.0 °F 77% 30.10 in 10.0 mi Calm Calm - N/A   Overcast
11:55 PM 38.7 °F - 32.0 °F 77% 30.09 in 10.0 mi Calm Calm - N/A   Overcast